[[{"header":{"parameterUnit":"m.s-1","parameterCategory":1,"la1":30.2991,"la2":30.254,"lo1":-89.0895,"lo2":-89.0444,"dy":0.0017,"dx":0.0017,"nx":28,"ny":28,"refTime":"2023-05-26T21:00:00:Z","depth":0,"parameterNumber":2,"parameterNumberName":"U-component_of_WINDS"},"data":[0,0,0,0,0,0,0,0,0,0,0,0,0,0,0,0,0,0,0,0,0,0,0,0,0,0,0,0,0,0,0,0,0,0,0,0,0,0,0,0,0,0,0,0,0,0,0,0,0,0,0,0,0,0,0,0,0,0,1.7808,1.7808,0,1.7838,1.7838,1.7839,1.7815,1.7814,1.7813,1.7812,1.784,1.7841,1.7843,0,0,0,0,0,0,0,0,0,0,0,0,0,1.7727,1.7729,1.7808,1.7808,1.7809,1.7838,1.7838,1.7839,1.7815,1.7814,1.7813,1.7812,1.7839,1.7841,1.7843,0,0,0,0,0,0,0,0,0,0,0,0,0,1.776,1.7729,1.7808,1.7801,1.78,1.7838,1.7838,1.7839,1.7816,1.7814,1.7813,1.7811,1.7839,1.7841,1.7844,1.7889,0,0,1.7851,1.7852,0,0,0,0,0,0,0,0,1.7758,1.7763,1.7801,1.7801,1.7801,1.7821,1.782,1.7856,1.7816,1.781,1.7812,1.781,1.7835,1.7837,1.7846,1.789,1.7891,1.7851,1.7853,1.7854,1.7855,0,0,0,0,0,0,0,1.7756,1.7762,1.782,1.7802,1.7802,1.7795,1.7798,1.7827,1.783,1.781,1.7808,1.7813,1.7834,1.7844,1.7847,1.7892,1.7851,1.7854,1.7855,1.7856,1.7973,1.7975,0,0,0,0,0,0,1.7755,1.776,1.7819,1.7821,1.7776,1.7797,1.7801,1.7816,1.783,1.783,1.7814,1.7811,1.784,1.7844,1.7848,1.7901,1.7854,1.7856,1.7858,1.7972,1.7974,1.7975,0,0,0,0,0,0,1.7753,1.776,1.7818,1.779,1.7797,1.78,1.7818,1.7818,1.7827,1.7833,1.7833,1.7823,1.7839,1.7844,1.7879,1.7901,1.7857,1.786,1.797,1.7972,1.7975,1.8007,0,0,0,0,0,0,1.7751,1.776,1.7778,1.7791,1.7798,1.7849,1.7819,1.7819,1.7832,1.7829,1.7841,1.7842,1.7839,1.7875,1.7881,1.7904,1.7862,1.7968,1.7971,1.7974,1.8004,1.8011,1.8016,0,0,0,0,0,1.7748,1.7786,1.7779,1.7786,1.7821,1.7851,1.7855,1.7851,1.7834,1.7851,1.7855,1.7842,1.7898,1.7879,1.7886,1.7909,1.7966,1.797,1.7974,1.8002,1.8009,1.8016,0,0,0,0,0,0,1.7774,1.7787,1.778,1.7823,1.7836,1.7847,1.7869,1.786,1.7877,1.7873,1.7867,1.787,1.7906,1.7911,1.789,1.7953,1.7929,1.7935,1.7948,1.7956,1.7962,1.7959,1.7864,0,0,0,0,0,1.7785,1.7809,1.7819,1.7856,1.7863,1.7865,1.7877,1.7873,1.7886,1.7891,1.7897,1.791,1.793,1.7943,1.7963,1.8006,1.8007,1.8025,1.8031,1.8036,1.804,1.8062,1.8069,1.7987,1.7987,1.7987,0,0,1.7808,1.7818,1.7833,1.7861,1.7871,1.7895,1.7869,1.7896,1.7913,1.7895,1.7928,1.7933,1.7946,1.7985,1.8002,1.799,1.8063,1.804,1.8044,1.8046,1.8066,1.8074,1.8081,1.799,1.7989,1.7989,0,0,1.786,1.7871,1.7902,1.7913,1.7928,1.793,1.7937,1.7949,1.7952,1.7986,1.7972,1.7992,1.8028,1.8038,1.8047,1.8104,1.8092,1.8111,1.8141,1.8162,1.8168,1.8174,1.8193,1.82,1.8115,1.8115,1.8115,0,1.7886,1.7922,1.7919,1.7947,1.7959,1.7945,1.7976,1.7986,1.8007,1.8015,1.8001,1.8046,1.8054,1.8094,1.8108,1.8116,1.8124,1.8108,1.8168,1.8174,1.8179,1.8196,1.8204,1.8117,1.8117,1.8116,1.8116,0,1.7952,1.7978,1.8001,1.8022,1.8037,1.8066,1.8066,1.8081,1.8076,1.8079,1.8112,1.8121,1.8142,1.8151,1.8146,1.8191,1.8183,1.8169,1.8144,1.8189,1.8205,1.8212,1.812,1.8119,1.8118,1.8118,0,0,1.8021,1.8041,1.8049,1.8058,1.8074,1.8093,1.8121,1.8142,1.8155,1.817,1.8192,1.8223,1.821,1.8221,1.8217,1.8236,1.8278,1.822,1.822,1.8229,1.8326,1.8335,1.8343,1.8271,1.8273,1.8274,1.8324,0,1.8073,1.8123,1.8121,1.8167,1.819,1.8177,1.8201,1.8213,1.8216,1.8235,1.8238,1.8259,1.8242,1.8248,1.8266,1.8269,1.8298,1.8266,1.829,1.8291,1.8286,1.8352,1.8362,1.8409,1.8331,1.8332,1.8333,0,1.8141,1.8159,1.8207,1.8219,1.8229,1.8251,1.8269,1.8288,1.8301,1.8301,1.8314,1.8307,1.8334,1.831,1.8347,1.8325,1.8335,1.8338,1.834,1.834,1.8313,1.8353,1.8424,1.8431,1.8343,1.8343,1.8342,0,1.8184,1.822,1.8254,1.8262,1.8278,1.8293,1.83,1.8312,1.8324,1.834,1.8348,1.8367,1.8377,1.8391,1.8389,1.8372,1.8426,1.8402,1.8425,1.8426,1.8436,1.8435,1.8508,1.8445,1.8445,1.8445,1.8445,0,1.8242,1.8271,1.8273,1.8294,1.8326,1.8324,1.8355,1.8361,1.8371,1.8391,1.8382,1.8401,1.8397,1.8416,1.8415,1.8444,1.8449,1.8449,1.8448,1.8449,1.8449,1.8454,1.845,1.8447,1.8447,1.8446,1.8446,0,1.8295,1.8298,1.8333,1.8345,1.8349,1.8372,1.8382,1.8401,1.8403,1.8429,1.8435,1.8438,1.8459,1.8459,1.8484,1.8482,1.8518,1.8514,1.8514,1.8512,1.8535,1.8533,1.8613,1.8623,1.8556,1.8556,1.8557,0,1.8331,1.8354,1.8368,1.8382,1.839,1.8412,1.8424,1.8423,1.8436,1.8453,1.8469,1.849,1.8506,1.8541,1.8545,1.8563,1.8558,1.8585,1.8561,1.8561,1.8556,1.8554,1.8556,1.8589,1.859,1.8591,1.8591,0,1.8394,1.8394,1.8413,1.8433,1.8449,1.8464,1.8479,1.849,1.8489,1.8505,1.8527,1.854,1.8565,1.8585,1.8603,1.8609,1.8599,1.8599,1.8605,1.8606,1.8604,1.8603,1.8525,1.8597,1.8596,1.8596,1.8596,1.8595,1.8438,1.8457,1.8471,1.8492,1.8503,1.8516,1.8534,1.8539,1.8558,1.8579,1.8577,1.8601,1.8613,1.8635,1.8643,1.8661,1.8652,1.8661,1.8663,1.8665,1.8666,1.8603,1.8665,1.8665,1.8664,1.8664,1.8664,0,1.8499,1.8507,1.8527,1.8548,1.8564,1.8556,1.8571,1.8585,1.8607,1.8619,1.8636,1.8661,1.868,1.8686,1.8705,1.8718,1.8714,1.8723,1.8721,1.8722,1.8675,1.8667,1.8725,1.8725,1.8725,1.8725,1.8725,1.8725,1.8533,1.8564,1.8566,1.8602,1.861,1.8634,1.8643,1.8655,1.8665,1.8693,1.871,1.8714,1.8723,1.8742,1.8759,1.876,1.8767,1.8777,1.8776,1.8732,1.8725,1.8719,1.8712,1.8779,1.8779,1.8821,1.8822,1.8822]},{"header":{"parameterUnit":"m.s-1","parameterCategory":1,"la1":30.2991,"la2":30.254,"lo1":-89.0895,"lo2":-89.0444,"dy":0.0017,"dx":0.0017,"nx":28,"ny":28,"refTime":"2023-05-26T21:00:00:Z","depth":0,"parameterNumber":3,"parameterNumberName":"V-component_of_WINDS"},"data":[0,0,0,0,0,0,0,0,0,0,0,0,0,0,0,0,0,0,0,0,0,0,0,0,0,0,0,0,0,0,0,0,0,0,0,0,0,0,0,0,0,0,0,0,0,0,0,0,0,0,0,0,0,0,0,0,0,0,-1.2174,-1.2173,0,-1.21,-1.2099,-1.2098,-1.2042,-1.2042,-1.2041,-1.2041,-1.1965,-1.1964,-1.1962,0,0,0,0,0,0,0,0,0,0,0,0,0,-1.2268,-1.2267,-1.2174,-1.2173,-1.2172,-1.21,-1.2099,-1.2098,-1.2042,-1.2042,-1.2041,-1.2041,-1.1966,-1.1964,-1.1962,0,0,0,0,0,0,0,0,0,0,0,0,0,-1.2214,-1.2266,-1.2174,-1.2136,-1.2132,-1.21,-1.2099,-1.2098,-1.2043,-1.2042,-1.2041,-1.204,-1.1966,-1.1964,-1.1962,-1.1963,0,0,-1.1955,-1.1954,0,0,0,0,0,0,0,0,-1.2217,-1.2211,-1.2142,-1.2138,-1.2134,-1.208,-1.2104,-1.2052,-1.2043,-1.2076,-1.2041,-1.204,-1.2004,-1.1999,-1.1986,-1.1959,-1.1956,-1.1955,-1.1953,-1.1952,-1.1952,0,0,0,0,0,0,0,-1.2221,-1.2213,-1.2145,-1.2141,-1.2136,-1.2122,-1.2114,-1.2094,-1.2045,-1.2073,-1.2069,-1.2061,-1.2001,-1.1989,-1.1984,-1.1955,-1.1955,-1.1953,-1.1951,-1.195,-1.1925,-1.1926,0,0,0,0,0,0,-1.2231,-1.2217,-1.2147,-1.2142,-1.2174,-1.2121,-1.2112,-1.2098,-1.2045,-1.2037,-1.2062,-1.2059,-1.1993,-1.1987,-1.1981,-1.1978,-1.1952,-1.195,-1.1949,-1.1925,-1.1925,-1.1926,0,0,0,0,0,0,-1.2233,-1.2225,-1.215,-1.2178,-1.2168,-1.2121,-1.2105,-1.2097,-1.2084,-1.2037,-1.2028,-1.2058,-1.1992,-1.1984,-1.1968,-1.1975,-1.1949,-1.1947,-1.1924,-1.1925,-1.1926,-1.1973,0,0,0,0,0,0,-1.2236,-1.2226,-1.2225,-1.2179,-1.2167,-1.2137,-1.2106,-1.2096,-1.208,-1.2075,-1.203,-1.2022,-1.1991,-1.1972,-1.1966,-1.1971,-1.1945,-1.1923,-1.1924,-1.1925,-1.197,-1.1975,-1.198,0,0,0,0,0,-1.2239,-1.2242,-1.2226,-1.2218,-1.2165,-1.2138,-1.2131,-1.2095,-1.2081,-1.208,-1.205,-1.2024,-1.1976,-1.197,-1.1963,-1.1968,-1.1922,-1.1924,-1.1925,-1.1968,-1.1974,-1.1979,0,0,0,0,0,0,-1.229,-1.2235,-1.2216,-1.2204,-1.2176,-1.2129,-1.2126,-1.2102,-1.2078,-1.2074,-1.2031,-1.2021,-1.2009,-1.1987,-1.1982,-1.1967,-1.1946,-1.1946,-1.1981,-1.1986,-1.1991,-1.1995,-1.1943,0,0,0,0,0,-1.23,-1.2282,-1.2235,-1.2228,-1.2216,-1.2174,-1.216,-1.2135,-1.2105,-1.2093,-1.2061,-1.2033,-1.2011,-1.1998,-1.1976,-1.1968,-1.1957,-1.1968,-1.1973,-1.1977,-1.1977,-1.1971,-1.1975,-1.1931,-1.1931,-1.1931,0,0,-1.2319,-1.2287,-1.2278,-1.2238,-1.2213,-1.2196,-1.2164,-1.2147,-1.2134,-1.209,-1.2072,-1.2049,-1.2014,-1.2002,-1.1995,-1.1983,-1.1987,-1.1979,-1.1982,-1.198,-1.1973,-1.1977,-1.1981,-1.1933,-1.1932,-1.1932,0,0,-1.2346,-1.232,-1.2311,-1.2288,-1.2252,-1.2224,-1.2222,-1.2179,-1.2161,-1.2143,-1.2109,-1.2094,-1.2058,-1.2034,-1.2018,-1.2038,-1.2013,-1.2033,-1.2056,-1.2051,-1.2054,-1.2057,-1.2063,-1.2066,-1.2033,-1.2033,-1.2033,0,-1.2374,-1.2347,-1.231,-1.2295,-1.2278,-1.2239,-1.223,-1.2209,-1.2167,-1.2157,-1.2144,-1.2099,-1.2073,-1.2054,-1.2059,-1.2048,-1.2044,-1.2036,-1.2057,-1.2059,-1.2061,-1.2067,-1.2069,-1.2036,-1.2035,-1.2035,-1.2035,0,-1.2384,-1.2366,-1.2363,-1.2324,-1.2307,-1.2296,-1.2257,-1.2245,-1.2222,-1.2196,-1.2178,-1.2146,-1.2116,-1.2111,-1.2088,-1.209,-1.2083,-1.2065,-1.2042,-1.2068,-1.2073,-1.2075,-1.2039,-1.2038,-1.2038,-1.2037,0,0,-1.2437,-1.2379,-1.2379,-1.2361,-1.2319,-1.2304,-1.2292,-1.2263,-1.2252,-1.2226,-1.2214,-1.2185,-1.2168,-1.2149,-1.2124,-1.212,-1.2138,-1.2102,-1.21,-1.2108,-1.2137,-1.215,-1.2153,-1.2122,-1.2122,-1.2122,-1.2139,0,-1.2456,-1.243,-1.2397,-1.2383,-1.2365,-1.2329,-1.2318,-1.2291,-1.2267,-1.2249,-1.2223,-1.2203,-1.2182,-1.2171,-1.2165,-1.2137,-1.2142,-1.2135,-1.211,-1.2109,-1.2117,-1.2155,-1.2168,-1.2186,-1.2141,-1.2141,-1.2141,0,-1.2474,-1.2449,-1.2433,-1.2393,-1.2384,-1.2375,-1.2346,-1.233,-1.23,-1.2283,-1.2263,-1.2236,-1.2221,-1.2203,-1.2182,-1.2178,-1.2166,-1.2151,-1.2151,-1.2145,-1.2125,-1.2149,-1.219,-1.2193,-1.2144,-1.2144,-1.2144,0,-1.2513,-1.2476,-1.2461,-1.2447,-1.2401,-1.2395,-1.2375,-1.2344,-1.2329,-1.2305,-1.2295,-1.2269,-1.2255,-1.2236,-1.2204,-1.2194,-1.2186,-1.2165,-1.2171,-1.2172,-1.2169,-1.2169,-1.2207,-1.2165,-1.2165,-1.2165,-1.2165,0,-1.2536,-1.2527,-1.2478,-1.2469,-1.2458,-1.2422,-1.2412,-1.2389,-1.2362,-1.2348,-1.2316,-1.2304,-1.2262,-1.2245,-1.222,-1.2206,-1.2201,-1.2186,-1.2179,-1.2188,-1.219,-1.2178,-1.2175,-1.2165,-1.2165,-1.2165,-1.2165,0,-1.2576,-1.2544,-1.2525,-1.2483,-1.2473,-1.2466,-1.2431,-1.2421,-1.2396,-1.2379,-1.2373,-1.2334,-1.2312,-1.2278,-1.2247,-1.223,-1.222,-1.221,-1.223,-1.2226,-1.2233,-1.2232,-1.2263,-1.2265,-1.2223,-1.2224,-1.2224,0,-1.2592,-1.2584,-1.2542,-1.2531,-1.2512,-1.2494,-1.2479,-1.2443,-1.2429,-1.2395,-1.2389,-1.2365,-1.2344,-1.2312,-1.228,-1.2257,-1.2244,-1.2257,-1.224,-1.225,-1.2243,-1.2243,-1.2242,-1.226,-1.2261,-1.2261,-1.2262,0,-1.2623,-1.2608,-1.2587,-1.2561,-1.2544,-1.2522,-1.2499,-1.2491,-1.2451,-1.2437,-1.2414,-1.2398,-1.2367,-1.2343,-1.2315,-1.2296,-1.2272,-1.2268,-1.2267,-1.2275,-1.2287,-1.2279,-1.2239,-1.2266,-1.2266,-1.2266,-1.2265,-1.2265,-1.2651,-1.2642,-1.2611,-1.259,-1.2569,-1.2548,-1.2536,-1.2511,-1.2491,-1.2462,-1.2443,-1.2422,-1.2393,-1.2354,-1.2335,-1.2319,-1.2308,-1.2308,-1.2308,-1.2308,-1.2311,-1.2292,-1.2314,-1.2314,-1.2313,-1.2313,-1.2313,0,-1.2679,-1.2658,-1.2638,-1.2607,-1.259,-1.2571,-1.2544,-1.2531,-1.2513,-1.2488,-1.2468,-1.2443,-1.2421,-1.2389,-1.2364,-1.2357,-1.2346,-1.2352,-1.2351,-1.2347,-1.2322,-1.2324,-1.2362,-1.2362,-1.2362,-1.2362,-1.2362,-1.2362,-1.2691,-1.2676,-1.2657,-1.2631,-1.261,-1.2589,-1.2576,-1.2557,-1.2536,-1.251,-1.2491,-1.2471,-1.2443,-1.2417,-1.2396,-1.2387,-1.2379,-1.2388,-1.2376,-1.2353,-1.2349,-1.2344,-1.2346,-1.2387,-1.2387,-1.2402,-1.2402,-1.2402]}]]